{"data":{"norad_id":52322,"intl_designator":"2022-043C","name":"SUPERVIEW NEO-1 02","alt_names":[],"object_type":"PAYLOAD","status":"ACTIVE","operator":null,"country":"PRC","launch_date":"2022-04-29","launch_site_code":"JSC","launch_vehicle":null,"mission":null,"orbit_class":"UNKNOWN","rcs_meters":null,"size_class":null,"mass_kg":null,"dimensions":null,"purposes":[],"wikipedia_slug":null,"has_3d_model":false,"image_url":null,"decayed_at":null,"tle_current":{"epoch":"2026-05-25T05:05:06.214272Z","epoch_age_seconds":53803,"freshness":"FRESH","line1":"1 52322U 22043C   26145.21187748  .00004972  00000+0  26047-3 0  9994","line2":"2 52322  97.3405 218.7480 0003165  73.3281 286.8299 15.16231346226098","mean_motion":15.16231346,"eccentricity":0.0003165,"inclination_deg":97.3405,"raan_deg":218.748,"arg_perigee_deg":73.3281,"mean_anomaly_deg":286.8299,"bstar":0.00026047,"rev_number":22609,"period_min":94.97231433705,"perigee_km":515.06044134773,"apogee_km":519.42521677953,"semimajor_km":6895.3798290636,"source":"CELESTRAK","updated_at":"2026-05-25T13:37:57.686817Z"}}}